Simultaneous Nadir Overpasses (SNOs) Predictions

Prediction of SNOs between GOES-14 and NPP Satellite Orbit:

Table of predicted SNOs for the next 14.0 days since TLE Epoch: 1/4/2020
Index Date Time (GOES-14) GOES-14 Lat,Lon NPP Lat,Lon Distance(km) Time Diff (sec)
1 01/04/2020 08:26:10 -0.01,-104.30 0.17,-104.99 78.50 80
2 01/05/2020 08:04:45 -0.01,-104.30 -0.84,-100.45 438.17 80
3 01/06/2020 20:26:40 0.01,-104.04 -0.34,-105.75 194.39 80
4 01/07/2020 20:10:35 0.00,-104.04 0.67,-101.22 322.66 80
5 01/09/2020 08:32:22 -0.01,-104.31 0.47,-106.49 249.01 80
6 01/10/2020 08:10:57 -0.00,-104.30 -0.54,-101.96 267.34 80
7 01/11/2020 20:32:51 0.00,-104.03 -0.70,-107.25 366.44 80
8 01/12/2020 20:16:45 0.00,-104.03 0.32,-102.71 150.19 80
9 01/14/2020 08:36:10 -0.01,-104.29 0.82,-107.99 421.15 63
10 01/15/2020 08:17:07 -0.00,-104.29 -0.19,-103.45 95.27 80
11 01/17/2020 20:20:16 0.01,-104.02 -0.03,-104.21 22.00 80




NCC Satellite Simultaneous Nadir Overpasses (SNOs) Prediction Service
